NO9B Weather Reports


time (UTC)temp
C
wind
direction
speed
KPH
gust
KPH
rain 1hr
cm
rain 24hr
cm
rain mn
cm
humidity
%
barometer
mb
20260906133504 21 235 3.2 3.2 0.00 0.00 0.00 85 1021.9
20260906132959 21 272 3.2 6.4 0.00 0.00 0.00 84 1021.9
20260906132454 21 314 0.0 3.2 0.00 0.00 0.00 87 1021.6
20260906131949 21 337 3.2 4.8 0.00 0.00 0.00 88 1021.7
20260906131445 20 296 0.0 3.2 0.00 0.00 0.00 91 1021.5
20260906130940 20 262 1.6 3.2 0.00 0.00 0.00 92 1021.5
20260906130439 20 253 0.0 3.2 0.00 0.00 0.00 95 1021.3
20260906125934 20 273 3.2 3.2 0.00 0.00 0.00 96 1021.3
20260906125432 20 265 1.6 3.2 0.00 0.00 0.00 97 1021.0
20260906124931 20 294 3.2 3.2 0.00 0.00 0.00 97 1021.1
20260906124428 19 307 0.0 1.6 0.00 0.00 0.00 97 1021.0
20260906123927 19 271 1.6 3.2 0.00 0.00 0.00 97 1021.0
20260906123426 19 255 1.6 3.2 0.00 0.00 0.00 97 1020.9
20260906122921 19 285 0.0 3.2 0.00 0.00 0.00 97 1021.1
20260906122421 18 268 3.2 3.2 0.00 0.00 0.00 97 1021.1
20260906121919 18 245 1.6 3.2 0.00 0.00 0.00 97 1021.1
20260906121414 18 277 1.6 3.2 0.00 0.00 0.00 96 1021.0
20260906120911 18 264 3.2 3.2 0.00 0.00 0.00 96 1021.0
20260906120406 18 260 1.6 3.2 0.00 0.00 0.00 96 1020.8
20260906115902 18 230 3.2 3.2 0.00 0.00 0.00 96 1020.6
20260906115357 18 237 1.6 3.2 0.00 0.00 0.00 96 1020.5
20260906114856 18 257 0.0 3.2 0.00 0.00 0.00 96 1020.5
20260906114352 18 268 1.6 3.2 0.00 0.00 0.00 96 1020.7
20260906113847 18 283 1.6 3.2 0.00 0.00 0.00 96 1020.4
20260906113346 18 272 1.6 1.6 0.00 0.00 0.00 96 1020.4
20260906112842 19 279 1.6 3.2 0.00 0.00 0.00 96 1020.4
20260906112338 19 281 1.6 3.2 0.00 0.00 0.00 96 1020.3
20260906111838 19 311 3.2 4.8 0.00 0.00 0.00 96 1020.2
20260906111337 19 305 1.6 4.8 0.00 0.00 0.00 96 1020.2
20260906110832 19 320 3.2 4.8 0.00 0.00 0.00 96 1020.3
20260906110328 19 311 4.8 4.8 0.00 0.00 0.00 96 1020.1
20260906105827 19 309 3.2 3.2 0.00 0.00 0.00 96 1020.1
20260906105323 19 245 1.6 3.2 0.00 0.00 0.00 96 1020.1
20260906104819 19 312 3.2 3.2 0.00 0.00 0.00 96 1020.2
20260906104317 19 283 1.6 3.2 0.00 0.00 0.00 96 1020.1
20260906103816 19 236 1.6 3.2 0.00 0.00 0.00 96 1020.2
20260906103315 19 265 3.2 3.2 0.00 0.00 0.00 96 1020.2
20260906102811 19 239 1.6 3.2 0.00 0.00 0.00 96 1020.2
20260906102310 19 296 3.2 4.8 0.00 0.00 0.00 96 1020.2
20260906101805 19 299 3.2 3.2 0.00 0.00 0.00 96 1020.2
20260906101300 18 312 3.2 4.8 0.00 0.00 0.00 96 1020.0
20260906100755 18 312 4.8 4.8 0.00 0.00 0.00 96 1020.0
20260906100254 18 308 3.2 4.8 0.00 0.00 0.00 96 1020.0
20260906095750 18 294 3.2 4.8 0.00 0.00 0.00 96 1020.0
20260906095245 18 247 0.0 3.2 0.00 0.00 0.00 96 1020.1
20260906094744 18 255 1.6 3.2 0.00 0.00 0.00 96 1020.1
20260906094239 18 281 1.6 3.2 0.00 0.00 0.00 96 1019.8
20260906093736 18 296 1.6 3.2 0.00 0.00 0.00 96 1019.9
20260906093231 18 285 1.6 1.6 0.00 0.00 0.00 96 1019.7
20260906092726 18 306 0.0 3.2 0.00 0.00 0.00 95 1019.7
20260906092226 18 315 3.2 3.2 0.00 0.00 0.00 95 1019.8
20260906091722 18 320 3.2 4.8 0.00 0.00 0.00 95 1019.7
20260906091218 18 269 0.0 3.2 0.00 0.00 0.00 95 1019.7
20260906090714 19 246 3.2 3.2 0.00 0.00 0.00 95 1019.8
20260906090214 19 251 1.6 3.2 0.00 0.00 0.00 95 1019.8
20260906085713 19 316 3.2 4.8 0.00 0.00 0.00 95 1019.9
20260906085212 19 318 3.2 4.8 0.00 0.00 0.00 95 1019.7
20260906084707 19 258 1.6 3.2 0.00 0.00 0.00 95 1020.0
20260906084206 19 309 3.2 3.2 0.00 0.00 0.00 95 1019.9
20260906083701 19 307 3.2 3.2 0.00 0.00 0.00 96 1019.8
20260906083157 19 316 3.2 3.2 0.00 0.00 0.00 96 1019.7
20260906082652 19 287 0.0 3.2 0.00 0.00 0.00 97 1019.7
20260906082147 19 268 1.6 3.2 0.00 0.00 0.00 97 1019.8
20260906081643 19 272 1.6 3.2 0.00 0.00 0.00 97 1019.6
20260906081138 19 268 1.6 3.2 0.00 0.00 0.00 97 1019.9
20260906080635 19 258 3.2 3.2 0.00 0.00 0.00 97 1019.8
20260906080131 19 260 1.6 3.2 0.00 0.00 0.00 97 1019.7
20260906075630 19 254 3.2 3.2 0.00 0.00 0.00 97 1019.6
20260906075125 19 279 3.2 3.2 0.00 0.00 0.00 97 1019.8
20260906074620 18 269 1.6 3.2 0.00 0.00 0.00 97 1019.8
20260906074119 18 253 1.6 3.2 0.00 0.00 0.00 96 1019.6
20260906073614 19 258 3.2 3.2 0.00 0.00 0.00 96 1019.5
20260906073109 19 254 1.6 3.2 0.00 0.00 0.00 96 1019.4
20260906072604 19 259 1.6 3.2 0.00 0.00 0.00 96 1019.3
20260906072100 19 269 1.6 3.2 0.00 0.00 0.00 97 1019.6
20260906071557 19 267 1.6 3.2 0.00 0.00 0.00 97 1019.5
20260906071051 19 274 3.2 3.2 0.00 0.00 0.00 97 1019.5
20260906070548 19 262 1.6 3.2 0.00 0.00 0.00 97 1019.5
20260906070043 19 277 1.6 3.2 0.00 0.00 0.00 97 1019.4
20260906065542 19 267 1.6 3.2 0.00 0.00 0.00 97 1019.5
20260906065038 19 280 3.2 3.2 0.00 0.00 0.00 97 1019.5
20260906064534 19 255 1.6 3.2 0.00 0.00 0.00 97 1019.6
20260906064029 19 260 1.6 3.2 0.00 0.00 0.00 97 1019.6
20260906063524 19 273 3.2 3.2 0.00 0.00 0.00 97 1019.7
20260906063020 19 257 1.6 3.2 0.00 0.00 0.00 97 1019.7
20260906062515 19 256 3.2 3.2 0.00 0.00 0.00 97 1019.7
20260906062009 19 257 1.6 3.2 0.00 0.00 0.00 97 1019.7
20260906061505 19 265 3.2 3.2 0.00 0.00 0.00 97 1019.5
20260906060959 19 262 1.6 3.2 0.00 0.00 0.00 97 1019.7
20260906060456 18 267 3.2 3.2 0.00 0.00 0.00 97 1019.6
20260906055953 18 259 1.6 3.2 0.00 0.00 0.00 96 1019.6
20260906055448 18 252 3.2 3.2 0.00 0.00 0.00 96 1019.5
20260906054944 18 258 1.6 3.2 0.00 0.00 0.00 96 1019.4
20260906054443 18 276 1.6 3.2 0.00 0.00 0.00 96 1019.5
20260906053939 18 256 1.6 3.2 0.00 0.00 0.00 96 1019.6
20260906053435 18 261 1.6 3.2 0.00 0.00 0.00 96 1019.5
20260906052930 18 257 1.6 3.2 0.00 0.00 0.00 96 1019.5
20260906052427 18 258 1.6 1.6 0.00 0.00 0.00 96 1019.5
20260906051923 19 250 1.6 3.2 0.00 0.00 0.00 95 1019.4
20260906051424 19 262 1.6 3.2 0.00 0.00 0.00 95 1019.6
20260906050919 19 271 1.6 3.2 0.00 0.00 0.00 95 1019.4
20260906050419 19 267 1.6 3.2 0.00 0.00 0.00 95 1019.3
20260906045918 19 258 1.6 3.2 0.00 0.00 0.00 95 1019.3
20260906045417 19 274 1.6 3.2 0.00 0.00 0.00 95 1019.3
20260906044914 19 265 1.6 3.2 0.00 0.00 0.00 95 1019.4
20260906044414 19 254 3.2 3.2 0.00 0.00 0.00 94 1019.3
20260906043909 19 235 3.2 3.2 0.00 0.00 0.00 94 1019.3
20260906043405 20 247 3.2 3.2 0.00 0.00 0.00 94 1019.1
20260906042901 20 261 3.2 3.2 0.00 0.00 0.00 93 1019.0
20260906042359 20 249 3.2 3.2 0.00 0.00 0.00 93 1018.9
20260906041855 20 247 3.2 3.2 0.00 0.00 0.00 93 1018.9
20260906041351 20 281 0.0 3.2 0.00 0.00 0.00 93 1018.9
20260906040851 20 328 3.2 4.8 0.00 0.00 0.00 93 1018.7
20260906040347 20 329 3.2 4.8 0.00 0.00 0.00 93 1018.7
20260906035847 20 316 3.2 4.8 0.00 0.00 0.00 92 1018.8
20260906035342 20 338 4.8 4.8 0.00 0.00 0.00 92 1018.8
20260906034837 20 337 3.2 4.8 0.00 0.00 0.00 92 1019.0
20260906034333 20 313 3.2 4.8 0.00 0.00 0.00 91 1018.8
20260906033828 20 319 3.2 4.8 0.00 0.00 0.00 91 1019.0
20260906033327 20 343 3.2 4.8 0.00 0.00 0.00 90 1019.0
20260906032824 20 335 1.6 4.8 0.00 0.00 0.00 90 1018.8
20260906032320 20 337 3.2 4.8 0.00 0.00 0.00 89 1018.9
20260906031814 20 337 3.2 4.8 0.00 0.00 0.00 89 1018.9
20260906031310 20 351 3.2 4.8 0.00 0.00 0.00 88 1018.8
20260906030810 20 332 4.8 6.4 0.00 0.00 0.00 88 1018.9
20260906030305 20 344 3.2 6.4 0.00 0.00 0.00 87 1018.9
20260906025805 21 342 3.2 6.4 0.00 0.00 0.00 86 1018.8
20260906025259 21 326 6.4 6.4 0.00 0.00 0.00 86 1019.0
20260906024758 21 328 4.8 6.4 0.00 0.00 0.00 86 1018.8
20260906024257 21 324 3.2 6.4 0.00 0.00 0.00 86 1018.7
20260906023753 21 309 3.2 8.0 0.00 0.00 0.00 87 1018.7
20260906023248 21 331 6.4 6.4 0.00 0.00 0.00 87 1018.7
20260906022744 21 350 4.8 6.4 0.00 0.00 0.00 87 1018.7
20260906022239 21 334 4.8 6.4 0.00 0.00 0.00 87 1018.5
20260906021735 21 335 4.8 6.4 0.00 0.00 0.00 88 1018.4
20260906021233 21 353 6.4 6.4 0.00 0.00 0.00 87 1018.5
20260906020728 21 324 4.8 6.4 0.00 0.00 0.00 88 1018.8
20260906020223 21 223 1.6 4.8 0.00 0.00 0.00 89 1018.7
20260906015723 21 293 0.0 3.2 0.00 0.00 0.00 89 1018.7
20260906015221 21 265 0.0 3.2 0.00 0.00 0.00 89 1018.4
20260906014716 21 308 3.2 4.8 0.00 0.00 0.00 89 1018.6
20260906014212 21 337 3.2 3.2 0.00 0.00 0.00 89 1018.6
20260906013708 21 317 3.2 6.4 0.00 0.00 0.00 89 1018.5
20260906013208 21 333 1.6 4.8 0.00 0.00 0.00 89 1018.7
20260906012704 21 306 1.6 3.2 0.00 0.00 0.00 89 1018.8
20260906012204 21 323 1.6 3.2 0.00 0.00 0.00 89 1018.6
20260906011700 21 280 0.0 3.2 0.00 0.00 0.00 89 1018.6
20260906011159 21 329 3.2 6.4 0.00 0.00 0.00 89 1018.7
20260906010655 21 316 3.2 3.2 0.00 0.00 0.00 89 1018.5
20260906010152 21 342 3.2 4.8 0.00 0.00 0.00 89 1018.8
20260906005651 22 269 1.6 3.2 0.00 0.00 0.00 89 1018.6
20260906005150 22 309 3.2 3.2 0.00 0.00 0.00 89 1018.6
20260906004649 22 311 3.2 4.8 0.00 0.00 0.00 88 1018.5
20260906004144 22 327 6.4 6.4 0.00 0.00 0.00 88 1018.4
20260906003640 22 309 3.2 6.4 0.00 0.00 0.00 88 1018.3
20260906003135 22 273 3.2 3.2 0.00 0.00 0.00 88 1018.5
20260906002630 22 318 3.2 3.2 0.00 0.00 0.00 87 1018.4
20260906002125 22 322 3.2 4.8 0.00 0.00 0.00 87 1018.4
20260906001620 22 336 3.2 6.4 0.00 0.00 0.00 87 1018.5
20260906001120 22 285 1.6 6.4 0.00 0.00 0.00 87 1018.5
20260906000616 22 327 4.8 6.4 0.00 0.00 0.00 87 1018.4
20260906000111 22 264 3.2 6.4 0.00 0.00 0.00 88 1018.6
20260905235610 22 271 1.6 4.8 0.00 0.00 0.00 88 1018.4
20260905235105 22 310 3.2 6.4 0.00 0.00 0.00 88 1018.8
20260905234601 22 312 3.2 4.8 0.00 0.00 0.00 88 1018.6
20260905234056 22 328 4.8 4.8 0.00 0.00 0.00 89 1018.5
20260905233555 22 332 6.4 6.4 0.00 0.00 0.00 88 1018.5
20260905233050 22 303 3.2 4.8 0.00 0.00 0.00 89 1018.5
20260905232546 22 301 3.2 4.8 0.00 0.00 0.00 89 1018.4
20260905232041 22 330 4.8 4.8 0.00 0.00 0.00 88 1018.7
20260905231536 22 312 3.2 4.8 0.00 0.00 0.00 89 1018.7
20260905231033 22 308 3.2 4.8 0.00 0.00 0.00 89 1018.6
20260905230532 22 331 4.8 4.8 0.00 0.00 0.00 89 1018.5
20260905230031 22 3 8.0 9.7 0.00 0.00 0.00 87 1018.4
20260905225526 22 324 6.4 6.4 0.00 0.00 0.00 88 1018.4
20260905225021 22 325 3.2 6.4 0.00 0.00 0.00 87 1018.3
20260905224521 22 255 0.0 9.7 0.00 0.00 0.00 86 1018.4
20260905224020 23 344 4.8 9.7 0.00 0.00 0.00 86 1018.5
20260905223518 23 329 4.8 9.7 0.00 0.00 0.00 86 1018.4
20260905223014 23 347 4.8 8.0 0.00 0.00 0.00 86 1018.2
20260905222513 23 335 3.2 9.7 0.00 0.00 0.00 86 1018.2
20260905222009 23 330 4.8 6.4 0.00 0.00 0.00 85 1018.0
20260905221505 23 346 4.8 9.7 0.00 0.00 0.00 85 1018.0
20260905221001 23 332 6.4 6.4 0.00 0.00 0.00 85 1018.0
20260905220457 23 3 3.2 6.4 0.00 0.00 0.00 85 1017.8
20260905215956 23 341 6.4 8.0 0.00 0.00 0.00 85 1017.9
20260905215451 23 322 4.8 6.4 0.00 0.00 0.00 86 1017.8
20260905214948 23 298 3.2 8.0 0.00 0.00 0.00 85 1017.8
20260905214444 23 343 6.4 8.0 0.00 0.00 0.00 85 1017.5
20260905213943 23 354 4.8 6.4 0.00 0.00 0.00 85 1017.8
20260905213440 23 332 6.4 6.4 0.00 0.00 0.00 85 1017.7
20260905212935 23 336 4.8 8.0 0.00 0.00 0.00 84 1017.8
20260905212430 23 350 6.4 9.7 0.00 0.00 0.00 84 1017.7
20260905211928 24 336 6.4 8.0 0.00 0.00 0.00 83 1017.7
20260905211425 25 0 8.0 8.0 0.00 0.00 0.00 82 1017.7
20260905210920 25 335 3.2 8.0 0.00 0.00 0.00 82 1017.6
20260905210421 25 345 6.4 9.7 0.00 0.00 0.00 80 1017.6
20260905205920 25 339 3.2 6.4 0.00 0.00 0.00 81 1017.3
20260905205415 25 329 4.8 9.7 0.00 0.00 0.00 80 1017.4
20260905204914 26 335 3.2 8.0 0.00 0.00 0.00 78 1017.5
20260905204410 26 337 6.4 9.7 0.00 0.00 0.00 78 1017.6
20260905203909 26 352 4.8 9.7 0.00 0.00 0.00 78 1017.5
20260905203404 26 5 6.4 6.4 0.00 0.00 0.00 79 1017.5
20260905202900 26 331 4.8 6.4 0.00 0.00 0.00 79 1017.5
20260905202355 26 334 8.0 8.0 0.00 0.00 0.00 78 1017.4
20260905201851 26 322 3.2 4.8 0.00 0.00 0.00 80 1017.5
20260905201346 26 325 4.8 8.0 0.00 0.00 0.00 78 1017.5
20260905200845 26 342 3.2 4.8 0.00 0.00 0.00 80 1017.5
20260905200342 26 329 3.2 9.7 0.00 0.00 0.00 79 1017.5
20260905195840 26 341 4.8 8.0 0.00 0.00 0.00 78 1017.7
20260905195335 26 351 4.8 8.0 0.00 0.00 0.00 78 1017.5
20260905194831 26 339 4.8 9.7 0.00 0.00 0.00 80 1017.5
20260905194330 26 348 9.7 9.7 0.00 0.00 0.00 81 1017.5
20260905193829 26 332 6.4 8.0 0.00 0.00 0.00 81 1017.6
20260905193324 26 319 3.2 6.4 0.00 0.00 0.00 80 1017.5
20260905192820 26 358 4.8 9.7 0.00 0.00 0.00 81 1017.4
20260905192316 26 352 6.4 8.0 0.00 0.00 0.00 81 1017.3
20260905191815 26 339 4.8 9.7 0.00 0.00 0.00 82 1017.5
20260905191314 26 340 9.7 9.7 0.00 0.00 0.00 81 1017.4
20260905190813 26 348 6.4 9.7 0.00 0.00 0.00 80 1017.4
20260905190307 26 307 1.6 6.4 0.00 0.00 0.00 80 1017.5
20260905185806 27 325 4.8 6.4 0.00 0.00 0.00 78 1017.5
20260905185305 27 323 4.8 8.0 0.00 0.00 0.00 77 1017.5
20260905184800 27 352 4.8 8.0 0.00 0.00 0.00 78 1017.4
20260905184259 27 333 1.6 4.8 0.00 0.00 0.00 78 1017.3
20260905183758 27 359 6.4 8.0 0.00 0.00 0.00 77 1017.6
20260905183255 27 313 3.2 6.4 0.00 0.00 0.00 77 1017.4
20260905182754 27 345 6.4 6.4 0.00 0.00 0.00 78 1017.4
20260905182253 27 339 6.4 6.4 0.00 0.00 0.00 78 1017.3
20260905181749 27 346 4.8 6.4 0.00 0.00 0.00 77 1017.4
20260905181249 27 0 4.8 4.8 0.00 0.00 0.00 77 1017.5
20260905180748 27 301 3.2 4.8 0.00 0.00 0.00 80 1017.4
20260905180243 26 351 4.8 6.4 0.00 0.00 0.00 80 1017.5
20260905175738 26 359 6.4 8.0 0.00 0.00 0.00 78 1017.5
20260905175233 27 351 1.6 4.8 0.00 0.00 0.00 77 1017.6
20260905174728 26 305 3.2 4.8 0.00 0.00 0.00 81 1017.5
20260905174224 27 343 4.8 8.0 0.00 0.00 0.00 78 1017.5
20260905173720 26 223 3.2 6.4 0.00 0.00 0.00 80 1017.6
20260905173216 26 326 3.2 3.2 0.00 0.00 0.00 82 1017.7
20260905172715 26 318 3.2 4.8 0.00 0.00 0.00 81 1017.5
20260905172215 26 321 3.2 4.8 0.00 0.00 0.00 81 1017.6
20260905171710 26 328 3.2 6.4 0.00 0.00 0.00 80 1017.5
20260905171206 26 335 3.2 4.8 0.00 0.00 0.00 80 1017.6
20260905170704 26 272 3.2 3.2 0.00 0.00 0.00 81 1017.6
20260905170204 26 336 3.2 4.8 0.00 0.00 0.00 80 1017.7
20260905165703 26 285 1.6 4.8 0.00 0.00 0.00 81 1017.5
20260905165159 26 338 3.2 6.4 0.00 0.00 0.00 82 1017.8
20260905164653 25 340 3.2 4.8 0.00 0.00 0.00 83 1017.7
20260905164153 25 257 1.6 3.2 0.00 0.00 0.00 85 1017.8
20260905163649 25 236 0.0 1.6 0.00 0.00 0.00 85 1017.7
20260905163145 25 317 3.2 3.2 0.00 0.00 0.00 85 1017.7
20260905162641 25 344 1.6 4.8 0.00 0.00 0.00 85 1017.7
20260905162141 25 298 0.0 4.8 0.00 0.00 0.00 85 1017.6
20260905161641 25 281 3.2 4.8 0.00 0.00 0.00 85 1017.6
20260905161139 25 348 3.2 4.8 0.00 0.00 0.00 85 1017.7
20260905160633 25 331 3.2 3.2 0.00 0.00 0.00 87 1017.6
20260905160133 25 284 0.0 4.8 0.00 0.00 0.00 86 1017.6
20260905155633 25 324 3.2 8.0 0.00 0.00 0.00 86 1017.7
20260905155131 25 356 4.8 6.4 0.00 0.00 0.00 86 1017.7
20260905154626 25 314 4.8 4.8 0.00 0.00 0.00 86 1017.6
20260905154121 25 22 3.2 8.0 0.00 0.00 0.00 86 1017.6
20260905153617 25 317 3.2 4.8 0.00 0.00 0.00 87 1017.5
20260905153112 25 323 4.8 9.7 0.00 0.00 0.00 86 1017.6
20260905152607 25 328 3.2 8.0 0.00 0.00 0.00 87 1017.5
20260905152102 25 259 3.2 8.0 0.00 0.00 0.00 86 1017.5
20260905151557 25 342 3.2 8.0 0.00 0.00 0.00 86 1017.5
20260905151053 25 344 6.4 6.4 0.00 0.00 0.00 87 1017.3
20260905150548 24 2 8.0 8.0 0.00 0.00 0.00 88 1017.3
20260905150046 24 325 0.0 6.4 0.00 0.00 0.00 88 1017.3
20260905145544 24 329 3.2 6.4 0.00 0.00 0.00 89 1017.3
20260905145044 24 334 6.4 6.4 0.00 0.00 0.00 89 1017.1
20260905144538 24 13 4.8 6.4 0.00 0.00 0.00 89 1017.1
20260905144038 23 346 4.8 6.4 0.00 0.00 0.00 89 1017.1
20260905143537 23 310 3.2 8.0 0.00 0.00 0.00 89 1016.8
20260905143032 23 324 3.2 6.4 0.00 0.00 0.00 91 1016.8
20260905142532 23 232 1.6 6.4 0.00 0.00 0.00 92 1016.9
20260905142027 23 334 3.2 6.4 0.00 0.00 0.00 92 1016.7
20260905141527 23 309 3.2 6.4 0.00 0.00 0.00 92 1016.7
20260905141024 23 350 4.8 4.8 0.00 0.00 0.00 92 1016.9
20260905140524 23 348 3.2 6.4 0.00 0.00 0.00 92 1016.8
20260905140023 23 332 3.2 6.4 0.00 0.00 0.00 92 1016.8
20260905135519 23 328 3.2 6.4 0.00 0.00 0.00 93 1016.7
20260905135013 23 313 0.0 6.4 0.00 0.00 0.00 93 1016.6
20260905134508 23 335 3.2 6.4 0.00 0.00 0.00 93 1016.7
20260905134007 23 345 3.2 8.0 0.00 0.00 0.00 93 1016.8